FW8874 Weather Reports


time (UTC)temp
C
wind
direction
speed
KPH
gust
KPH
rain 1hr
cm
rain 24hr
cm
rain mn
cm
humidity
%
barometer
mb
20260506044536 7 48 1.6 11.3 0.00 0.00 0.00 85 1012.9
20260506043030 7 41 1.6 11.3 0.00 0.00 0.00 85 1012.8
20260506041530 7 47 1.6 9.7 0.00 0.00 0.00 85 1012.7
20260506040036 7 19 1.6 9.7 0.00 0.00 0.00 85 1012.7
20260506034533 8 0 3.2 9.7 0.00 0.00 0.00 85 1012.7
20260506033030 8 41 3.2 11.3 0.00 0.00 0.00 86 1012.7
20260506031539 8 321 1.6 6.4 0.00 0.00 0.00 86 1012.7
20260506030031 8 22 1.6 4.8 0.00 0.00 0.00 86 1012.7
20260506024533 8 36 1.6 6.4 0.00 0.00 0.00 85 1012.8
20260506023050 8 25 0.0 8.0 0.00 0.00 0.00 84 1012.7
20260506021552 8 0 1.6 11.3 0.00 0.00 0.00 83 1012.7
20260506020032 8 58 0.0 6.4 0.00 0.00 0.00 82 1012.9
20260506014532 8 34 0.0 9.7 0.00 0.00 0.00 81 1012.9
20260506013035 8 72 1.6 12.9 0.00 0.00 0.00 80 1012.9
20260506011531 9 67 1.6 14.5 0.00 0.00 0.00 80 1013.0
20260506010032 9 36 4.8 12.9 0.00 0.00 0.00 80 1013.1
20260506004534 9 81 4.8 14.5 0.00 0.00 0.00 81 1012.9
20260506003032 9 300 3.2 11.3 0.00 0.00 0.00 82 1013.0
20260506001532 10 312 3.2 9.7 0.00 0.00 0.00 82 1013.0
20260506000030 10 96 1.6 11.3 0.00 0.00 0.00 82 1013.0
20260505234532 10 345 1.6 8.0 0.00 0.00 0.00 82 1013.0
20260505233035 10 0 0.0 8.0 0.00 0.00 0.00 82 1013.1
20260505231546 10 0 3.2 11.3 0.00 0.00 0.00 80 1012.9
20260505230030 11 65 0.0 11.3 0.00 0.00 0.00 78 1012.9
20260505224532 11 34 3.2 9.7 0.00 0.00 0.00 77 1012.9
20260505223031 11 14 1.6 9.7 0.00 0.00 0.00 77 1012.7
20260505221534 11 49 1.6 12.9 0.00 0.00 0.00 76 1012.7
20260505220033 11 50 4.8 11.3 0.00 0.00 0.00 76 1012.7
20260505214548 11 37 3.2 14.5 0.00 0.00 0.00 76 1012.8
20260505213038 11 33 1.6 12.9 0.00 0.00 0.00 76 1012.7
20260505211530 11 38 3.2 17.7 0.00 0.00 0.00 76 1012.5
20260505210031 11 45 0.0 8.0 0.00 0.00 0.00 76 1012.5
20260505204531 12 306 0.0 8.0 0.00 0.00 0.00 75 1012.4
20260505203050 12 0 1.6 9.7 0.00 0.00 0.00 75 1012.4
20260505201540 12 331 0.0 4.8 0.00 0.00 0.00 74 1012.4
20260505200032 12 314 1.6 6.4 0.00 0.00 0.00 74 1012.3
20260505194530 12 328 1.6 6.4 0.00 0.00 0.00 74 1012.2
20260505193033 12 321 1.6 8.0 0.00 0.00 0.00 73 1012.0
20260505191529 12 312 1.6 8.0 0.00 0.00 0.00 72 1011.9
20260505190034 12 339 0.0 4.8 0.00 0.00 0.00 73 1012.0
20260505184534 12 0 1.6 4.8 0.00 0.00 0.00 74 1011.9
20260505183029 13 313 0.0 4.8 0.00 0.00 0.00 73 1011.7
20260505181535 13 0 0.0 3.2 0.00 0.00 0.00 73 1011.6
20260505180029 13 0 1.6 4.8 0.00 0.00 0.00 73 1011.7
20260505174538 13 0 1.6 8.0 0.00 0.00 0.00 72 1011.8
20260505173030 13 306 1.6 9.7 0.00 0.00 0.00 71 1011.9
20260505171533 13 308 3.2 12.9 0.00 0.00 0.00 71 1011.9
20260505170036 13 332 3.2 11.3 0.00 0.00 0.00 71 1012.0
20260505164529 13 298 3.2 11.3 0.00 0.00 0.00 69 1012.0
20260505163034 13 120 1.6 8.0 0.00 0.00 0.00 68 1011.9
20260505161530 13 1 1.6 8.0 0.00 0.00 0.00 69 1012.0
20260505153035 13 1 0.0 8.0 0.00 0.00 0.00 70 1012.1
20260505151545 13 296 1.6 6.4 0.00 0.00 0.00 70 1012.1
20260505124532 13 0 1.6 8.0 0.00 0.00 0.00 72 1012.8
20260505123033 13 308 3.2 11.3 0.00 0.00 0.00 70 1012.7
20260505121531 12 321 1.6 12.9 0.00 0.00 0.00 73 1012.7
20260505120038 12 29 4.8 12.9 0.00 0.00 0.00 74 1012.9
20260505114530 12 316 3.2 12.9 0.00 0.00 0.00 77 1012.9
20260505113030 12 25 3.2 11.3 0.00 0.00 0.00 76 1012.9
20260505111532 12 32 4.8 12.9 0.00 0.00 0.00 77 1013.0
20260505101532 11 28 4.8 16.1 0.00 0.00 0.00 78 1013.2
20260505100034 11 72 4.8 14.5 0.00 0.00 0.00 79 1013.4
20260505094530 11 337 1.6 9.7 0.00 0.00 0.00 83 1013.4
20260505093040 11 58 3.2 14.5 0.00 0.00 0.00 83 1013.4
20260505091532 11 25 4.8 16.1 0.00 0.00 0.00 82 1013.6
20260505090038 11 72 6.4 16.1 0.00 0.00 0.00 82 1013.5
20260505084532 11 309 6.4 12.9 0.00 0.00 0.00 83 1013.4
20260505083033 11 29 6.4 14.5 0.00 0.00 0.00 82 1013.6
20260505081532 11 7 3.2 16.1 0.00 0.00 0.00 83 1013.6
20260505080030 11 13 4.8 19.3 0.00 0.00 0.00 82 1013.5
20260505074531 11 292 4.8 17.7 0.00 0.00 0.00 84 1013.5
20260505073037 11 330 3.2 12.9 0.00 0.00 0.00 86 1013.3
20260505071529 11 316 1.6 8.0 0.00 0.00 0.00 88 1013.5
20260505070032 10 299 1.6 8.0 0.00 0.00 0.00 89 1013.6
20260505064531 10 321 1.6 8.0 0.00 0.00 0.00 89 1013.6
20260505063038 10 34 1.6 9.7 0.00 0.00 0.00 90 1013.6
20260505061531 10 0 1.6 9.7 0.00 0.00 0.00 92 1013.5
20260505060034 10 0 0.0 4.8 0.00 0.00 0.00 93 1013.8
20260505054537 9 44 0.0 4.8 0.00 0.00 0.00 92 1013.5
20260505053041 8 18 1.6 6.4 0.00 0.00 0.00 93 1013.6